This is the latest recevied weather packets stored in our database for station/object KB3KAV. If no packets are shown the sender has not sent any weather packets the latest 10 day(s).
| Time | Temp. | Humidity | Pressure | Rain* | Wind** | Luminosity | Snow |
|---|---|---|---|---|---|---|---|
| 1777683849 | 7.78° C | 94% | 1041 hPa | 0 mm | - | 0 W/m² | - |
| 1777683244 | 7.78° C | 94% | 1041.2 hPa | 0 mm | - | 0 W/m² | - |
| 1777682643 | 7.78° C | 93% | 1041.1 hPa | 0 mm | - | 0 W/m² | - |
| 1777682038 | 8.33° C | 93% | 1040.7 hPa | 0 mm | - | 0 W/m² | - |
| 1777681437 | 8.33° C | 92% | 1041 hPa | 0 mm | - | 0 W/m² | - |
| 1777680838 | 8.33° C | 92% | 1040.8 hPa | 1.78 mm | - | 0 W/m² | - |
| 1777680234 | 8.33° C | 91% | 1040.9 hPa | 0 mm | - | 0 W/m² | - |
| 1777679631 | 8.89° C | 89% | 1040.7 hPa | 1.27 mm | - | 0 W/m² | - |
| 1777679029 | 8.89° C | 86% | 1040.7 hPa | 1.78 mm | - | 2 W/m² | - |
| 1777678424 | 9.44° C | 83% | 1040.9 hPa | 0 mm | - | 3 W/m² | - |
| 1777677823 | 9.44° C | 81% | 1041.1 hPa | 0 mm | - | 8 W/m² | - |
| 1777677218 | 10° C | 77% | 1040.7 hPa | 0 mm | - | 10 W/m² | - |
| 1777676616 | 10.56° C | 73% | 1040.7 hPa | 0 mm | - | 11 W/m² | - |
| 1777676016 | 11.11° C | 69% | 1040.3 hPa | 0 mm | - | 16 W/m² | - |
| 1777675414 | 11.67° C | 67% | 1040.3 hPa | 0 mm | - | 19 W/m² | - |
| 1777674812 | 11.67° C | 63% | 1039.9 hPa | 0 mm | - | 15 W/m² | - |
| 1777674213 | 12.22° C | 61% | 1040.2 hPa | 0 mm | - | 27 W/m² | - |
| 1777673612 | 12.22° C | 60% | 1040.1 hPa | 0 mm | - | 46 W/m² | - |
| 1777673007 | 12.22° C | 61% | 1040 hPa | 0 mm | - | 54 W/m² | - |
| 1777672405 | 12.22° C | 62% | 1039.7 hPa | 0 mm | - | 97 W/m² | - |
| 1777671802 | 12.22° C | 59% | 1040 hPa | 0 mm | - | 97 W/m² | - |
| 1777671201 | 12.22° C | 57% | 1039.7 hPa | 0 mm | - | 81 W/m² | - |
| 1777670599 | 12.78° C | 56% | 1039.7 hPa | 0 mm | - | 113 W/m² | - |
| 1777670000 | 13.89° C | 52% | 1039.4 hPa | 0 mm | - | 103 W/m² | - |
| 1777669400 | 13.33° C | 50% | 1039.3 hPa | 0 mm | - | 116 W/m² | - |
* Rain latest hour (hover to see other rain measurements)
** Current wind speed in m/s (hover to see current wind gust speed)